Retour au catalogue

Vladivostok-1

ActifScienceSSO
NORAD 61751·PAYLOAD·🇷🇺 Russia

Lancé Nov 4, 2024 depuis Vostochny Cosmodrome

Loading…

Prochains Passages (prochaines 24 heures)

TLE

FraisSource: Space-Track

Époque: Sep 14, 2026, 21:40 UTC

1 61751U 24199S   26257.90302666  .00008691  00000-0  23290-3 0  9992
2 61751  97.2836 126.7172 0008927 355.7905   4.3263 15.38196031150925

Suivez Vladivostok-1 en temps réel avec AllMySat

Download on the App Store